period_start,C,m1,H,J0,J1,J2,J3,J4,J5,JA,JB,JC,JD,JJ,JK,JN,#
2015-11-29 00:04:49,0.18,0.89,0.00,18.39,22.91,26.85,14.88,49.42,1020.58,2051.00,3265.14,2955.44,3296.25,599.63,607.53,4.83,0000 0000 0000 0000 000000
2015-11-29 00:09:51,0.19,0.90,0.00,18.39,22.91,26.82,14.87,49.47,1020.54,2051.02,3261.42,2952.69,3293.15,600.10,607.94,4.88,0000 0000 0000 0000 000000
2015-11-29 00:14:52,0.19,0.91,0.00,18.39,22.91,26.81,14.88,49.36,1020.53,2051.00,3257.52,2949.92,3290.05,599.93,607.60,4.93,0000 0000 0000 0000 000000
2015-11-29 00:19:53,0.20,0.92,0.00,18.40,22.91,26.86,14.91,49.29,1020.54,2051.00,3253.52,2947.10,3286.83,599.84,607.57,4.98,0000 0000 0000 0000 000000
2015-11-29 00:24:55,0.19,0.93,0.00,18.42,22.91,26.85,14.91,49.34,1020.52,2051.00,3249.54,2944.30,3283.61,599.80,607.48,5.03,0000 0000 0000 0000 000000
2015-11-29 00:29:56,0.21,0.94,0.00,18.41,22.91,26.82,14.89,49.12,1020.54,2051.00,3245.32,2941.42,3280.40,600.05,607.75,5.08,0000 0000 0000 0000 000000
2015-11-29 00:34:57,0.20,0.95,0.00,18.39,22.90,26.86,14.90,49.26,1020.53,2051.00,3241.27,2938.46,3277.07,599.56,607.34,5.13,0000 0000 0000 0000 000000
2015-11-29 00:39:59,0.19,0.96,0.00,18.41,22.90,26.84,14.85,49.33,1020.52,2051.00,3237.16,2935.66,3273.96,599.67,607.38,5.18,0000 0000 0000 0000 000000
2015-11-29 00:45:00,0.20,0.97,0.00,18.42,22.90,26.83,14.89,49.43,1020.53,2051.00,3233.10,2932.82,3270.87,600.18,607.97,5.23,0000 0000 0000 0000 000000
2015-11-29 00:50:01,0.20,0.98,0.00,18.44,22.90,26.82,14.93,49.41,1020.52,2051.00,3229.20,2929.98,3267.60,600.27,607.95,5.28,0000 0000 0000 0000 000000
2015-11-29 00:55:03,0.19,0.99,0.00,18.44,22.91,26.86,14.95,49.43,1020.52,2051.00,3225.23,2927.27,3264.64,600.32,607.94,5.33,0000 0000 0000 0000 000000
2015-11-29 01:00:04,0.19,1.00,0.00,18.44,22.91,26.86,14.88,49.40,1020.52,2051.00,3221.19,2924.46,3261.76,599.96,607.58,5.38,0000 0000 0000 0000 000000
2015-11-29 01:05:05,0.20,1.01,0.00,18.42,22.92,26.84,15.03,49.52,1020.52,2051.01,3217.25,2921.68,3258.71,600.32,608.04,5.43,0000 0000 0000 0000 000000
2015-11-29 01:10:07,0.19,1.02,0.00,18.44,22.92,26.82,14.94,49.45,1020.52,2051.01,3213.52,2919.01,3255.69,600.18,607.81,5.48,0000 0000 0000 0000 000000
2015-11-29 01:15:08,0.18,1.03,0.00,18.45,22.92,26.88,14.87,49.46,1020.52,2051.00,3210.02,2916.34,3252.59,599.75,607.44,5.53,0000 0000 0000 0000 000000
2015-11-29 01:20:09,0.19,1.04,0.00,18.45,22.92,26.87,14.91,49.42,1020.50,2051.00,3206.20,2913.62,3249.51,599.95,607.67,5.58,0000 0000 0000 0000 000000
2015-11-29 01:25:10,0.19,1.05,0.00,18.44,22.92,26.91,14.90,49.35,1020.51,2051.00,3202.44,2910.96,3246.57,599.67,607.33,5.63,0000 0000 0000 0000 000000
2015-11-29 01:30:12,0.19,1.06,0.00,18.45,22.92,26.88,14.90,49.43,1020.52,2051.00,3198.54,2908.25,3243.68,600.25,607.96,5.68,0000 0000 0000 0000 000000
2015-11-29 01:35:13,0.19,1.07,0.00,18.47,22.92,26.89,14.93,49.55,1020.52,2051.00,3194.64,2905.45,3240.60,600.22,607.88,5.73,0000 0000 0000 0000 000000
2015-11-29 01:40:14,0.20,1.08,0.00,18.47,22.92,26.90,14.85,49.57,1020.51,2051.00,3190.77,2902.76,3237.63,600.01,607.54,5.78,0000 0000 0000 0000 000000
2015-11-29 01:45:16,0.20,1.09,0.00,18.47,22.94,26.85,14.90,49.44,1020.51,2051.00,3186.79,2899.96,3234.49,600.11,607.69,5.83,0000 0000 0000 0000 000000
2015-11-29 01:50:17,0.20,1.10,0.00,18.47,22.94,26.85,14.90,49.58,1020.51,2051.00,3182.87,2897.15,3231.38,599.86,607.45,5.88,0000 0000 0000 0000 000000
2015-11-29 01:55:19,0.21,1.11,0.00,18.47,22.94,26.89,14.92,49.53,1020.51,2051.00,3178.84,2894.26,3228.08,600.17,607.82,5.93,0000 0000 0000 0000 000000
2015-11-29 02:00:20,0.21,1.12,0.00,18.47,22.94,26.90,14.94,49.54,1020.52,2051.00,3174.82,2891.33,3224.81,600.06,607.72,5.98,0000 0000 0000 0000 000000
2015-11-29 02:05:21,0.20,1.13,0.00,18.47,22.95,26.93,14.89,49.48,1020.35,2051.00,3170.76,2888.45,3221.63,599.86,607.38,6.03,0000 0000 0000 0000 000000
2015-11-29 02:10:22,0.20,1.14,0.00,18.48,22.97,26.89,14.95,49.58,1020.19,2051.00,3166.94,2885.70,3218.41,600.12,607.57,6.08,0000 0000 0000 0000 000000
2015-11-29 02:15:23,0.20,1.15,0.00,18.48,22.97,26.94,14.81,49.49,1020.27,2050.99,3162.85,2882.80,3215.24,599.65,607.17,6.13,0000 0000 0000 0000 000000
2015-11-29 02:20:25,0.21,1.16,0.00,18.47,22.97,26.88,14.88,49.42,1020.13,2050.99,3158.69,2879.91,3212.03,599.96,607.23,6.18,0000 0000 0000 0000 000000
2015-11-29 02:25:26,0.21,1.17,0.00,18.48,22.98,26.92,14.94,49.55,1020.10,2050.99,3154.52,2877.07,3208.71,600.06,607.41,6.23,0000 0000 0000 0000 000000
2015-11-29 02:30:27,0.22,1.18,0.00,18.49,22.99,26.90,14.91,49.50,1020.05,2050.98,3150.36,2874.13,3205.39,600.08,607.36,6.28,0000 0000 0000 0000 000000
2015-11-29 02:35:28,0.21,1.20,0.00,18.48,22.99,26.94,14.92,49.56,1020.04,2050.98,3146.09,2871.10,3202.04,600.14,607.43,6.33,0000 0000 0000 0000 000000
2015-11-29 02:40:30,0.21,1.21,0.00,18.48,22.99,26.97,14.89,49.57,1020.04,2050.97,3141.98,2868.12,3198.66,600.07,607.41,6.38,0000 0000 0000 0000 000000
2015-11-29 02:45:31,0.21,1.22,0.00,18.49,23.00,26.89,14.90,49.47,1020.04,2050.98,3137.83,2865.12,3195.36,600.29,607.57,6.43,0000 0000 0000 0000 000000
2015-11-29 02:50:33,0.22,1.23,0.00,18.49,23.00,26.92,14.92,49.48,1020.02,2050.97,3133.63,2862.07,3192.00,600.24,607.60,6.48,0000 0000 0000 0000 000000
2015-11-29 02:55:34,0.22,1.24,0.00,18.49,23.02,26.91,14.90,49.51,1019.92,2050.94,3129.47,2859.09,3188.61,600.19,607.35,6.53,0000 0000 0000 0000 000000
2015-11-29 03:00:35,0.22,1.25,0.00,18.51,23.02,26.98,14.86,49.46,1019.88,2050.96,3125.14,2856.04,3185.20,599.92,607.09,6.58,0000 0000 0000 0000 000000
2015-11-29 03:05:37,0.22,1.26,0.00,18.52,23.02,26.95,14.75,49.51,1020.03,2050.95,3120.89,2853.00,3181.88,599.65,606.90,6.64,0000 0000 0000 0000 000000
2015-11-29 03:10:38,0.22,1.27,0.00,18.52,23.02,26.96,14.91,49.61,1020.00,2050.95,3116.59,2849.93,3178.41,599.69,607.01,6.69,0000 0000 0000 0000 000000
2015-11-29 03:15:40,0.22,1.28,0.00,18.52,23.02,26.93,14.83,49.57,1020.03,2050.91,3112.26,2846.80,3174.98,600.06,607.32,6.74,0000 0000 0000 0000 000000
2015-11-29 03:20:41,0.20,1.30,0.00,18.54,23.02,26.93,14.88,49.61,1020.03,2050.73,3107.89,2843.62,3171.48,599.74,606.92,6.79,0000 0000 0000 0000 000000
2015-11-29 03:25:43,0.23,1.31,0.00,18.54,23.03,26.95,14.90,49.69,1020.03,2050.59,3103.50,2840.55,3167.98,599.81,606.99,6.84,0000 0000 0000 0000 000000
2015-11-29 03:30:43,0.22,1.32,0.00,18.53,23.04,26.98,14.92,49.75,1020.02,2050.41,3099.08,2837.41,3164.41,600.31,607.36,6.89,0000 0000 0000 0000 000000
2015-11-29 03:35:45,0.19,1.33,0.00,18.54,23.04,26.97,14.83,49.60,1020.03,2050.20,3094.70,2834.24,3160.91,600.28,607.42,6.94,0000 0000 0000 0000 000000
2015-11-29 03:40:47,0.24,1.34,0.00,18.54,23.04,26.95,14.89,49.56,1020.03,2050.17,3090.22,2831.10,3157.43,600.10,607.34,6.99,0000 0000 0000 0000 000000
2015-11-29 03:45:48,0.23,1.35,0.00,18.53,23.04,26.96,14.93,49.63,1020.01,2050.24,3085.78,2827.93,3153.91,600.16,607.39,7.04,0000 0000 0000 0000 000000
2015-11-29 03:50:49,0.23,1.36,0.00,18.55,23.05,26.97,14.89,49.70,1019.96,2050.12,3081.25,2824.73,3150.33,600.04,607.24,7.09,0000 0000 0000 0000 000000
2015-11-29 03:55:51,0.22,1.38,0.00,18.56,23.05,27.00,14.89,49.67,1020.02,2050.22,3077.05,2821.69,3146.88,600.12,607.26,7.14,0000 0000 0000 0000 000000
2015-11-29 04:00:52,0.23,1.39,0.00,18.56,23.07,26.99,14.86,49.63,1020.03,2050.06,3072.63,2818.49,3143.30,599.91,607.06,7.19,0000 0000 0000 0000 000000
2015-11-29 04:05:53,0.23,1.40,0.00,18.57,23.07,26.98,14.92,49.63,1020.02,2050.09,3068.36,2815.50,3139.90,600.11,607.30,7.24,0000 0000 0000 0000 000000
2015-11-29 04:10:54,0.24,1.41,0.00,18.57,23.07,27.00,14.92,49.72,1020.00,2050.12,3063.97,2812.39,3136.42,600.13,607.19,7.29,0000 0000 0000 0000 000000
2015-11-29 04:15:55,0.23,1.42,0.00,18.57,23.07,27.01,14.84,49.61,1019.86,2050.05,3059.48,2809.23,3133.04,599.98,606.93,7.34,0000 0000 0000 0000 000000
2015-11-29 04:20:56,0.23,1.43,0.00,18.57,23.07,27.04,14.82,49.60,1020.00,2050.06,3055.20,2806.17,3129.66,599.83,606.93,7.39,0000 0000 0000 0000 000000
2015-11-29 04:25:58,0.22,1.45,0.00,18.59,23.09,27.02,14.88,49.63,1020.03,2050.02,3051.01,2803.13,3126.28,599.94,607.03,7.44,0000 0000 0000 0000 000000
2015-11-29 04:30:59,0.22,1.46,0.00,18.58,23.09,26.96,14.99,49.70,1020.03,2050.05,3046.92,2800.22,3122.93,600.14,607.27,7.49,0000 0000 0000 0000 000000
2015-11-29 04:36:01,0.23,1.47,0.00,18.59,23.09,27.00,14.90,49.73,1020.04,2050.04,3042.61,2797.14,3119.59,600.07,607.15,7.54,0000 0000 0000 0000 000000
2015-11-29 04:41:02,0.22,1.48,0.00,18.59,23.09,27.03,14.94,49.70,1020.05,2050.01,3038.43,2794.12,3116.23,600.20,607.32,7.59,0000 0000 0000 0000 000000
2015-11-29 04:46:03,0.21,1.49,0.00,18.59,23.10,27.04,14.81,49.71,1020.06,2050.01,3034.59,2791.37,3113.14,599.84,607.01,7.64,0000 0000 0000 0000 000000
2015-11-29 04:51:04,0.21,1.50,0.00,18.59,23.11,27.07,14.93,49.76,1020.06,2050.00,3030.70,2788.51,3109.98,600.13,607.15,7.69,0000 0000 0000 0000 000000
2015-11-29 04:56:05,0.20,1.51,0.00,18.59,23.12,27.04,14.88,49.69,1020.04,2050.00,3026.96,2785.86,3106.95,599.91,606.98,7.74,0000 0000 0000 0000 000000
2015-11-29 05:01:07,0.21,1.52,0.00,18.60,23.12,27.06,14.87,49.69,1020.06,2050.00,3023.19,2783.13,3103.86,599.97,607.09,7.79,0000 0000 0000 0000 000000
2015-11-29 05:06:08,0.20,1.53,0.00,18.62,23.13,27.02,14.88,49.70,1020.05,2050.00,3019.42,2780.32,3100.77,600.01,607.04,7.84,0000 0000 0000 0000 000000
2015-11-29 05:11:10,0.20,1.54,0.00,18.62,23.14,27.08,14.87,49.73,1020.04,2050.00,3015.70,2777.65,3097.81,599.90,606.95,7.89,0000 0000 0000 0000 000000
2015-11-29 05:16:11,0.20,1.55,0.00,18.62,23.14,27.05,14.87,49.75,1020.05,2050.00,3012.07,2775.08,3094.86,600.08,607.16,7.94,0000 0000 0000 0000 000000
2015-11-29 05:21:13,0.19,1.56,0.00,18.63,23.14,27.08,14.90,49.88,1020.05,2050.00,3008.46,2772.41,3091.90,600.18,607.19,7.99,0000 0000 0000 0000 000000
2015-11-29 05:26:14,0.19,1.57,0.00,18.64,23.15,27.09,14.91,49.75,1020.04,2050.00,3005.02,2769.85,3089.08,599.75,606.78,8.04,0000 0000 0000 0000 000000
2015-11-29 05:31:15,0.20,1.58,0.00,18.64,23.17,27.07,14.84,49.67,1020.05,2050.00,3001.38,2767.22,3086.15,599.69,606.71,8.09,0000 0000 0000 0000 000000
2015-11-29 05:36:17,0.20,1.59,0.00,18.65,23.17,27.09,14.89,49.75,1020.04,2049.99,2997.83,2764.61,3083.20,599.81,606.76,8.14,0000 0000 0000 0000 000000
2015-11-29 05:41:18,0.20,1.60,0.00,18.65,23.17,27.13,14.93,49.77,1020.04,2049.98,2994.22,2762.00,3080.29,600.22,607.23,8.19,0000 0000 0000 0000 000000
2015-11-29 05:46:19,0.18,1.61,0.00,18.66,23.18,27.05,14.97,49.79,1020.04,2049.98,2990.91,2759.49,3077.42,599.93,606.84,8.24,0000 0000 0000 0000 000000
2015-11-29 05:51:21,0.20,1.63,0.00,18.67,23.19,27.11,14.93,49.79,1020.03,2049.98,2987.36,2756.97,3074.53,600.10,607.02,8.29,0000 0000 0000 0000 000000
2015-11-29 05:56:22,0.19,1.64,0.00,18.67,23.19,27.11,14.79,49.81,1020.03,2049.97,2983.80,2754.43,3071.82,599.69,606.60,8.34,0000 0000 0000 0000 000000
2015-11-29 06:01:23,0.19,1.64,0.00,18.67,23.19,27.13,14.96,49.79,1020.03,2049.97,2980.33,2751.96,3069.11,600.15,607.03,8.39,0000 0000 0000 0000 000000
2015-11-29 06:06:25,0.19,1.65,0.00,18.69,23.19,27.11,14.82,49.78,1020.03,2049.97,2976.86,2749.57,3066.26,599.64,606.53,8.44,0000 0000 0000 0000 000000
2015-11-29 06:11:26,0.19,1.66,0.00,18.69,23.20,27.10,14.85,49.62,1020.03,2049.95,2973.42,2747.05,3063.48,599.98,606.85,8.49,0000 0000 0000 0000 000000
2015-11-29 06:16:27,0.19,1.67,0.00,18.70,23.21,27.10,14.91,49.66,1020.01,2049.93,2970.07,2744.60,3060.71,600.16,607.01,8.54,0000 0000 0000 0000 000000
2015-11-29 06:21:29,0.19,1.68,0.00,18.70,23.22,27.16,14.89,49.77,1020.01,2049.90,2966.70,2742.15,3057.93,600.09,606.93,8.59,0000 0000 0000 0000 000000
2015-11-29 06:26:30,0.17,1.69,0.00,18.71,23.22,27.11,14.85,49.52,1020.03,2049.77,2963.28,2739.63,3055.14,599.86,606.69,8.64,0000 0000 0000 0000 000000
2015-11-29 06:31:31,0.20,1.70,0.00,18.72,23.22,27.12,14.90,49.76,1020.03,2049.56,2959.64,2737.00,3052.14,600.05,606.87,8.69,0000 0000 0000 0000 000000
2015-11-29 06:36:32,0.18,1.71,0.00,18.72,23.23,27.16,14.90,49.71,1020.03,2049.35,2955.92,2734.28,3049.15,600.03,606.84,8.74,0000 0000 0000 0000 000000
2015-11-29 06:41:33,0.19,1.72,0.00,18.72,23.24,27.14,14.89,49.78,1020.03,2049.26,2952.44,2731.74,3046.30,600.07,606.89,8.79,0000 0000 0000 0000 000000
2015-11-29 06:46:35,0.18,1.73,0.00,18.74,23.24,27.17,14.91,49.74,1020.03,2049.27,2949.20,2729.37,3043.58,600.06,606.86,8.84,0000 0000 0000 0000 000000
2015-11-29 06:51:36,0.18,1.74,0.00,18.74,23.24,27.13,14.84,49.80,1020.03,2049.12,2945.74,2726.90,3040.87,600.19,607.07,8.90,0000 0000 0000 0000 000000
2015-11-29 06:56:37,0.18,1.75,0.00,18.74,23.24,27.12,14.88,49.85,1020.03,2049.07,2942.52,2724.52,3038.22,600.07,606.83,8.95,0000 0000 0000 0000 000000
2015-11-29 07:01:39,0.18,1.76,0.00,18.75,23.25,27.20,14.81,49.78,1020.03,2049.13,2939.41,2722.25,3035.70,599.75,606.51,9.00,0000 0000 0000 0000 000000
2015-11-29 07:06:40,0.17,1.77,0.00,18.77,23.26,27.18,14.84,49.77,1020.03,2049.08,2936.22,2719.97,3033.16,600.06,606.72,9.05,0000 0000 0000 0000 000000
2015-11-29 07:11:42,0.17,1.78,0.00,18.78,23.27,27.19,14.78,49.85,1020.03,2049.04,2933.09,2717.66,3030.58,599.68,606.39,9.10,0000 0000 0000 0000 000000
2015-11-29 07:16:43,0.18,1.79,0.00,18.79,23.27,27.20,14.96,49.87,1020.03,2049.04,2930.04,2715.37,3028.07,600.24,606.95,9.15,0000 0000 0000 0000 000000
2015-11-29 07:21:44,0.17,1.79,0.00,18.79,23.27,27.20,14.92,49.88,1020.03,2049.00,2927.07,2713.12,3025.46,599.78,606.34,9.20,0000 0000 0000 0000 000000
2015-11-29 07:26:45,0.18,1.80,0.00,18.79,23.27,27.17,14.85,49.82,1020.03,2049.00,2924.05,2710.93,3022.98,599.95,606.61,9.25,0000 0000 0000 0000 000000
2015-11-29 07:31:47,0.17,1.81,0.00,18.79,23.28,27.20,14.86,49.79,1020.03,2049.00,2921.01,2708.67,3020.44,599.97,606.63,9.30,0000 0000 0000 0000 000000
2015-11-29 07:36:48,0.17,1.82,0.00,18.79,23.29,27.18,14.93,49.85,1020.03,2049.00,2917.94,2706.43,3017.95,600.35,607.01,9.35,0000 0000 0000 0000 000000
2015-11-29 07:41:49,0.18,1.83,0.00,18.80,23.29,27.17,14.86,49.81,1020.04,2049.01,2914.79,2704.19,3015.44,599.85,606.53,9.40,0000 0000 0000 0000 000000
2015-11-29 07:46:51,0.18,1.84,0.00,18.81,23.29,27.22,14.88,49.81,1020.04,2049.00,2911.57,2701.86,3012.85,600.32,606.94,9.45,0000 0000 0000 0000 000000
2015-11-29 07:51:52,0.17,1.85,0.00,18.82,23.29,27.26,14.88,49.83,1020.04,2049.00,2908.50,2699.63,3010.40,600.01,606.72,9.50,0000 0000 0000 0000 000000
2015-11-29 07:56:53,0.17,1.86,0.00,18.82,23.30,27.27,14.85,49.58,1020.04,2049.00,2905.46,2697.42,3007.99,599.81,606.35,9.55,0000 0000 0000 0000 000000
2015-11-29 08:01:54,0.17,1.87,0.00,18.83,23.32,27.20,14.78,49.46,1020.04,2049.00,2902.51,2695.25,3005.67,599.76,606.32,9.60,0000 0000 0000 0000 000000
2015-11-29 08:06:56,0.18,1.87,0.00,18.84,23.32,27.23,14.84,49.73,1020.04,2049.00,2899.56,2693.12,3003.27,600.04,606.60,9.65,0000 0000 0000 0000 000000
2015-11-29 08:11:57,0.17,1.88,0.00,18.84,23.32,27.22,14.80,49.68,1020.04,2049.00,2896.63,2690.83,3000.75,599.80,606.35,9.70,0000 0000 0000 0000 000000
2015-11-29 08:16:58,0.17,1.89,0.00,18.85,23.34,27.26,14.92,49.80,1020.04,2049.00,2893.63,2688.62,2998.29,600.29,606.77,9.75,0000 0000 0000 0000 000000
2015-11-29 08:21:59,0.16,1.90,0.00,18.87,23.34,27.26,14.83,49.77,1020.04,2048.98,2890.60,2686.45,2995.74,599.96,606.44,9.80,0000 0000 0000 0000 000000
2015-11-29 08:27:00,0.18,1.91,0.00,18.87,23.35,27.27,14.76,49.67,1020.04,2048.99,2887.57,2684.31,2993.32,599.92,606.42,9.85,0000 0000 0000 0000 000000
2015-11-29 08:32:02,0.16,1.92,0.00,18.87,23.37,27.27,14.90,49.75,1020.04,2048.98,2885.01,2682.27,2990.91,600.22,606.70,9.90,0000 0000 0000 0000 000000
2015-11-29 08:37:03,0.17,1.93,0.00,18.89,23.37,27.30,14.81,49.67,1020.04,2048.97,2882.01,2680.11,2988.47,599.73,606.19,9.95,0000 0000 0000 0000 000000
2015-11-29 08:42:05,0.18,1.94,0.00,18.89,23.37,27.29,14.92,49.86,1020.04,2048.98,2879.12,2677.89,2986.08,600.13,606.53,10.00,0000 0000 0000 0000 000000
2015-11-29 08:47:06,0.16,1.95,0.00,18.89,23.38,27.28,14.89,49.75,1020.04,2048.95,2876.35,2675.74,2983.65,600.01,606.51,10.05,0000 0000 0000 0000 000000
2015-11-29 08:52:08,0.17,1.95,0.00,18.91,23.39,27.32,14.87,49.77,1020.04,2048.93,2873.38,2673.61,2981.27,599.82,606.33,10.10,0000 0000 0000 0000 000000
2015-11-29 08:57:09,0.13,1.96,0.00,18.92,23.39,27.28,14.87,49.70,1020.04,2048.75,2870.67,2671.55,2978.88,600.24,606.62,10.15,0000 0000 0000 0000 000000
2015-11-29 09:02:10,0.19,1.97,0.00,18.92,23.39,27.30,14.84,49.65,1020.04,2048.78,2867.59,2669.40,2976.59,599.95,606.35,10.20,0000 0000 0000 0000 000000
2015-11-29 09:07:11,0.14,1.98,0.00,18.92,23.40,27.32,14.90,49.64,1020.04,2048.63,2864.72,2667.27,2974.16,600.18,606.58,10.25,0000 0000 0000 0000 000000
2015-11-29 09:12:13,0.19,1.99,0.00,18.92,23.40,27.32,14.90,49.68,1020.04,2048.68,2861.90,2665.19,2971.85,600.11,606.55,10.30,0000 0000 0000 0000 000000
2015-11-29 09:17:14,0.15,2.00,0.00,18.93,23.41,27.32,14.79,49.76,1020.04,2048.64,2858.98,2663.10,2969.48,599.97,606.39,10.35,0000 0000 0000 0000 000000
2015-11-29 09:22:15,0.16,2.00,0.00,18.94,23.42,27.36,14.77,49.67,1020.04,2048.56,2856.14,2660.96,2967.12,599.55,605.97,10.40,0000 0000 0000 0000 000000
2015-11-29 09:27:17,0.16,2.01,0.00,18.94,23.42,27.30,14.89,49.65,1020.04,2048.47,2853.39,2658.89,2964.71,600.07,606.41,10.45,0000 0000 0000 0000 000000
2015-11-29 09:32:18,0.17,2.02,0.00,18.95,23.42,27.33,14.83,49.59,1020.02,2048.39,2850.27,2656.68,2962.35,600.02,606.35,10.50,0000 0000 0000 0000 000000
2015-11-29 09:37:19,0.16,2.03,0.00,18.95,23.43,27.35,14.97,49.81,1020.02,2048.46,2847.57,2654.55,2959.95,599.87,606.29,10.55,0000 0000 0000 0000 000000
2015-11-29 09:42:20,0.15,2.04,0.00,18.95,23.44,27.40,14.92,49.67,1020.03,2048.09,2844.53,2652.29,2957.40,600.16,606.48,10.60,0000 0000 0000 0000 000000
2015-11-29 09:47:22,0.17,2.05,0.00,18.97,23.45,27.36,14.90,49.57,1020.01,2048.03,2841.53,2650.14,2955.01,600.04,606.33,10.65,0000 0000 0000 0000 000000
2015-11-29 09:52:23,0.18,2.06,0.00,18.97,23.45,27.38,14.88,49.66,1020.01,2048.04,2838.57,2648.00,2952.62,600.07,606.33,10.70,0000 0000 0000 0000 000000
2015-11-29 09:57:24,0.18,2.06,0.00,18.97,23.45,27.38,14.79,49.62,1020.01,2048.03,2835.52,2645.73,2950.12,599.76,606.19,10.75,0000 0000 0000 0000 000000
2015-11-29 10:02:25,0.17,2.07,0.00,18.98,23.47,27.36,14.88,49.65,1020.02,2048.02,2832.79,2643.57,2947.59,599.77,606.04,10.80,0000 0000 0000 0000 000000
2015-11-29 10:07:26,0.17,2.08,0.00,18.97,23.47,27.36,14.88,49.50,1020.02,2048.01,2829.94,2641.49,2945.23,600.13,606.48,10.85,0000 0000 0000 0000 000000
2015-11-29 10:12:28,0.18,2.09,0.00,18.99,23.47,27.39,14.82,49.50,1020.03,2048.00,2826.84,2639.32,2943.00,600.12,606.46,10.90,0000 0000 0000 0000 000000
2015-11-29 10:17:29,0.18,2.10,0.00,18.99,23.47,27.41,14.86,49.71,1020.00,2048.00,2823.72,2637.12,2940.50,599.94,606.19,10.95,0000 0000 0000 0000 000000
2015-11-29 10:22:30,0.18,2.11,0.00,18.99,23.48,27.37,14.86,49.46,1020.00,2048.01,2820.74,2634.92,2938.09,600.45,606.69,11.00,0000 0000 0000 0000 000000
2015-11-29 10:27:32,0.17,2.12,0.00,19.00,23.49,27.42,14.86,49.72,1020.01,2048.00,2818.00,2632.76,2935.61,599.83,606.05,11.05,0000 0000 0000 0000 000000
2015-11-29 10:32:33,0.17,2.13,0.00,19.00,23.50,27.35,14.89,49.63,1019.91,2048.00,2815.39,2630.64,2933.10,600.29,606.37,11.11,0000 0000 0000 0000 000000
2015-11-29 10:37:34,0.18,2.14,0.00,19.00,23.50,27.39,14.84,49.53,1019.85,2047.99,2812.42,2628.40,2930.65,600.00,606.02,11.16,0000 0000 0000 0000 000000
2015-11-29 10:42:35,0.18,2.15,0.00,19.02,23.50,27.42,14.82,49.61,1019.72,2047.98,2809.46,2626.28,2928.26,599.78,605.76,11.21,0000 0000 0000 0000 000000
2015-11-29 10:47:37,0.18,2.16,0.00,19.02,23.50,27.44,14.85,49.56,1019.64,2047.98,2806.32,2624.09,2925.88,599.88,605.87,11.26,0000 0000 0000 0000 000000
2015-11-29 10:52:38,0.17,2.17,0.00,19.02,23.51,27.42,14.83,49.68,1019.69,2047.97,2803.31,2622.05,2923.40,599.72,605.68,11.31,0000 0000 0000 0000 000000
2015-11-29 10:57:39,0.17,2.17,0.00,19.02,23.52,27.44,14.83,49.60,1019.59,2047.97,2800.69,2619.93,2920.86,600.13,606.00,11.36,0000 0000 0000 0000 000000
2015-11-29 11:02:40,0.18,2.18,0.00,19.02,23.52,27.43,14.91,49.58,1019.58,2047.97,2797.69,2617.64,2918.29,600.40,606.25,11.41,0000 0000 0000 0000 000000
2015-11-29 11:07:41,0.17,2.19,0.00,19.04,23.52,27.42,14.85,49.54,1019.62,2047.89,2794.72,2615.45,2915.80,599.97,605.87,11.46,0000 0000 0000 0000 000000
2015-11-29 11:12:42,0.19,2.20,0.00,19.04,23.52,27.46,14.82,49.55,1019.57,2047.88,2791.81,2613.26,2913.33,600.02,605.88,11.51,0000 0000 0000 0000 000000
2015-11-29 11:17:43,0.18,2.21,0.00,19.04,23.52,27.45,14.91,49.71,1019.56,2047.82,2788.76,2611.07,2910.93,600.36,606.30,11.56,0000 0000 0000 0000 000000
2015-11-29 11:22:45,0.18,2.22,0.00,19.04,23.52,27.42,14.95,49.78,1019.55,2047.84,2785.78,2608.92,2908.44,600.14,606.02,11.61,0000 0000 0000 0000 000000
2015-11-29 11:27:46,0.18,2.23,0.00,19.04,23.52,27.47,14.80,49.67,1019.58,2047.79,2782.72,2606.74,2906.03,599.77,605.64,11.66,0000 0000 0000 0000 000000
2015-11-29 11:32:47,0.16,2.24,0.00,19.03,23.52,27.42,14.80,49.63,1019.61,2047.64,2779.83,2604.53,2903.54,599.80,605.79,11.71,0000 0000 0000 0000 000000
2015-11-29 11:37:49,0.20,2.25,0.00,19.02,23.52,27.41,14.76,49.61,1019.68,2047.73,2776.93,2602.41,2901.16,599.79,605.80,11.76,0000 0000 0000 0000 000000
2015-11-29 11:42:50,0.15,2.26,0.00,19.02,23.51,27.44,14.84,49.62,1019.73,2047.61,2774.06,2600.29,2898.74,599.78,605.71,11.81,0000 0000 0000 0000 000000
2015-11-29 11:47:51,0.16,2.27,0.00,19.02,23.51,27.46,14.92,49.70,1019.73,2047.34,2771.10,2598.06,2896.25,600.14,606.20,11.86,0000 0000 0000 0000 000000
2015-11-29 11:52:52,0.20,2.27,0.00,19.02,23.50,27.52,14.97,49.74,1019.87,2047.29,2767.90,2595.81,2893.77,600.30,606.40,11.91,0000 0000 0000 0000 000000
2015-11-29 11:57:54,0.18,2.29,0.00,19.02,23.50,27.44,14.88,49.68,1019.89,2047.35,2764.87,2593.53,2891.28,599.92,605.97,11.96,0000 0000 0000 0000 000000
2015-11-29 12:02:55,0.17,2.29,0.00,19.02,23.50,27.44,15.01,49.77,1019.85,2047.13,2761.78,2591.24,2888.70,600.37,606.41,12.01,0000 0000 0000 0000 000000
2015-11-29 12:07:56,0.20,2.30,0.00,19.02,23.50,27.45,14.75,49.59,1019.74,2047.30,2758.95,2589.13,2886.28,599.74,605.76,12.06,0000 0000 0000 0000 000000
2015-11-29 12:12:58,0.21,2.31,0.00,19.02,23.50,27.50,14.88,49.73,1019.71,2047.42,2755.73,2586.90,2883.89,600.08,606.00,12.11,0000 0000 0000 0000 000000
2015-11-29 12:17:59,0.20,2.32,0.00,19.02,23.50,27.48,14.84,49.65,1019.70,2047.58,2752.74,2584.71,2881.47,599.79,605.77,12.16,0000 0000 0000 0000 000000
2015-11-29 12:23:00,0.18,2.33,0.00,19.01,23.50,27.46,14.93,49.79,1019.86,2047.66,2749.80,2582.47,2879.16,600.22,606.32,12.21,0000 0000 0000 0000 000000
2015-11-29 12:28:02,0.21,2.34,0.00,18.99,23.50,27.44,14.80,49.73,1019.87,2047.68,2746.71,2580.22,2876.73,600.20,606.33,12.26,0000 0000 0000 0000 000000
2015-11-29 12:33:03,0.20,2.35,0.00,18.99,23.50,27.43,14.74,49.71,1019.75,2047.66,2743.60,2577.91,2874.12,599.80,605.95,12.31,0000 0000 0000 0000 000000
2015-11-29 12:38:05,0.20,2.36,0.00,18.98,23.50,27.44,14.99,49.91,1019.75,2047.78,2740.61,2575.63,2871.54,600.14,606.33,12.36,0000 0000 0000 0000 000000
2015-11-29 12:43:06,0.16,2.37,0.00,18.99,23.50,27.47,14.88,49.79,1019.76,2047.52,2737.58,2573.35,2868.97,600.01,606.10,12.41,0000 0000 0000 0000 000000
2015-11-29 12:48:07,0.19,2.38,0.00,18.97,23.52,27.41,14.82,49.80,1019.62,2047.43,2734.41,2571.01,2866.32,599.86,605.90,12.46,0000 0000 0000 0000 000000
2015-11-29 12:53:07,0.18,2.39,0.00,18.97,23.52,27.48,14.90,49.80,1019.56,2047.32,2731.48,2568.77,2863.70,599.90,605.87,12.51,0000 0000 0000 0000 000000
2015-11-29 12:58:09,0.17,2.40,0.00,18.97,23.52,27.43,14.85,49.66,1019.55,2047.07,2728.64,2566.46,2861.05,600.26,606.28,12.56,0000 0000 0000 0000 000000
2015-11-29 13:03:10,0.20,2.41,0.00,18.97,23.52,27.49,14.85,49.81,1019.55,2047.06,2725.42,2564.24,2858.59,599.98,605.75,12.61,0000 0000 0000 0000 000000